ENBOENLK

Guest
Details From ENBO - BODO
To ENLK - Leknes
Flight Number -
Tags generated
Created
Modified
Stats Distance 56 nm / 104 km
Max Altitude 7,100 ft / 2,164 m
Waypoints 3
Social Downloads 2
Likes 0
Share VATSIM

Download

Looking for another format? Having issues loading an existing format? Contact us
Advertisement - Login to hide

Notes

Basic altitude profile: - Ascent Rate: 2500ft/min - Ascent Speed: 250kts - Cruise Altitude: 35000ft - Cruise Speed: 420kts - Descent Rate: 1500ft/min - Descent Speed: 250kts Options: - Use NATs: yes - Use PACOTS: yes - Use low airways: yes - Use high airways: yes

Route

ENBO LEBDO ENLK

ID Type Via Altitude Latitude Longitude Leg Dist Tot Dist Heading (true) Name
O ENBO APT - 0 ft / 0 m 67.26849˚ 14.35677˚ - 0 nm - BODO
LEBDO FIX - 7,100 ft / 2,164 m 67.64306˚ 14.18250˚ 22 nm 22 nm 350° / 350° -
O ENLK APT - 0 ft / 0 m 68.15261˚ 13.60951˚ 33 nm 56 nm 337° / 337° Leknes

Altitude Profile

Advertisement - Login to hide

ENBO

Details ICAO ENBO (BOO)
Name BODO
Region Norway
Timezone Europe/Oslo (UTC+2.0)
Stats Elevation 42 ft / 13 m (AMSL)
Location 67.268487° 14.356773°
Runways 1
Magnetic Variation 5.798° E

METAR

ENBO 242120Z 10002KT CAVOK 10/01 Q1025 NOSIG

Decode

TAF

TAF TAF ENBO 241700Z 2418/2518 09008KT CAVOK BECMG 2500/2502 23018KT TEMPO 2500/2506 BKN008 TEMPO 2501/2516 24020G30KT TEMPO 2513/2518 BKN008

Decode

Departure Runways

ID Width Length Bearing (true) Bearing (mag) Surface Threshold Offset Overrun Length
07 148 ft / 45 m 11,096 ft / 3,382 m 77.83° 72.03° Concrete 1,969 ft / 600 m 984 ft / 300 m
25 148 ft / 45 m 11,096 ft / 3,382 m 257.90° 252.10° Concrete 0 ft / 0 m 486 ft / 148 m

ENLK

Details ICAO ENLK (LKN)
Name Leknes
Region Norway
Timezone Europe/Oslo (UTC+2.0)
Stats Elevation 78 ft / 24 m (AMSL)
Location 68.152613° 13.609505°
Runways 1
Magnetic Variation 5.528° E

METAR

ENLK 242120Z VRB02KT CAVOK 08/02 Q1024

Decode

TAF

Not found

Destination Runways

ID Width Length Bearing (true) Bearing (mag) Surface Threshold Offset Overrun Length
03 98 ft / 30 m 2,876 ft / 877 m 27.57° 22.04° Asphalt 125 ft / 38 m 0 ft / 0 m
21 98 ft / 30 m 2,876 ft / 877 m 207.58° 202.05° Asphalt 131 ft / 40 m 0 ft / 0 m